Regional Weather Roundup
Issued by NWS

Home | Current Version | Previous Version | Graphics & Text | Print | Product List | Glossary On
Versions: 1 2 3 4 5 6 7 8 9 10 11 12 13 14 15 16 17 18 19 20 21 22 23 24 25 26 27 28 29 30 31 32 33 34 35 36 37 38 39 40 41 42 43 44 45 46 47 48 49 50
000
ASUS43 KLMK 292310
RWRKY
KENTUCKY REGIONAL WEATHER ROUNDUP
NATIONAL WEATHER SERVICE LOUISVILLE KY
700 PM EDT FRI MAY 29 2015

NOTE "FAIR" INDICATES FEW OR NO CLOUDS BELOW 12,000 FEET
WITH NO SIGNIFICANT WEATHER AND/OR OBSTRUCTIONS TO VISIBILITY.

KYZ001>023-026-027-061>063-070>075-300000-
WESTERN AND SOUTH CENTRAL KENTUCKY

CITY           SKY/WX    TMP DP  RH WIND       PRES   REMARKS
PADUCAH        MOSUNNY   84  66  54 S9        29.98F
HENDERSON      SUNNY     82  66  57 S10       29.99F
OWENSBORO      MOSUNNY   83  69  62 S12       30.03F
HOPKINSVILLE   SUNNY     81  67  63 S7        30.03F
BOWLING GREEN  MOSUNNY   81  67  62 S10       30.05F
GLASGOW        MOSUNNY   79  66  63 S7        30.07F
$$

KYZ024-025-028>034-038-045-046-053-300000-
NORTH CENTRAL KENTUCKY

CITY           SKY/WX    TMP DP  RH WIND       PRES   REMARKS
LOUISVILLE/SDF MOSUNNY   82  65  56 S10       30.04F
LOUISVILLE/LOU MOSUNNY   81  64  56 S9        30.05F
FORT KNOX      SUNNY     80  66  63 S7        30.05F
$$

KYZ035>037-039>044-047>052-055>060-089>105-300000-
NORTHEAST KENTUCKY

CITY           SKY/WX    TMP DP  RH WIND       PRES   REMARKS
LEXINGTON      MOSUNNY   79  65  62 S12       30.09F
COVINGTON      PTSUNNY   78  67  68 SW3       30.06F
FRANKFORT      MOSUNNY   78  66  66 S8        30.06F
$$

KYZ054-064>069-076>088-106>120-300000-
SOUTHEAST KENTUCKY

CITY           SKY/WX    TMP DP  RH WIND       PRES   REMARKS
JACKSON        MOSUNNY   76  70  82 CALM      30.14F
LONDON         PTSUNNY   83  61  47 VRB3      30.12F
SOMERSET       MOSUNNY   79  64  61 SW6       30.12S
MIDDLESBORO    PTSUNNY   77  66  67 S3        30.14S
MONTICELLO     MOCLDY    72  70  94 SW6       30.15R FOG
$$



USA.gov is the U.S. government's official web portal to all federal, state and local government web resources and services.